Location: S�deilles
(46.7500°N, 6.9329°E)
Time: 17:27:58
(UTC+00:00)

USA 306 - Pass Details

Date: 08 March 2021
Orbit: 564 x 577 km, 54.0° (Epoch: 22 April)

Event Time Altitude Azimuth Distance (km) Brightness Sun altitude
Rises 18:27:22 0° 298° (WNW) 2,789 7.8 -10.9°
Reaches altitude 10° 18:29:45 10° 306° (NW) 1,887 6.5 -11.3°
Maximum altitude 18:33:49 40° 17° (NNE) 851 3.7 -12.0°
Enters shadow 18:36:35 18° 80° (E) 1,428 4.3 -12.5°
